GW3992 Weather Reports


time (UTC)temp
C
wind
direction
speed
KPH
gust
KPH
rain 1hr
cm
rain 24hr
cm
rain mn
cm
humidity
%
barometer
mb
20260505035624 11 44 0.0 0.0 0.00 0.00 0.00 86 1016.6
20260505035120 11 8 0.0 0.0 0.00 0.00 0.00 88 1016.7
20260505034617 11 26 0.0 0.0 0.00 0.00 0.00 89 1016.4
20260505034114 11 316 0.0 0.0 0.00 0.00 0.00 90 1016.7
20260505033610 11 33 0.0 0.0 0.00 0.00 0.00 91 1016.6
20260505033109 11 306 0.0 0.0 0.00 0.00 0.00 92 1016.6
20260505032607 11 41 0.0 0.0 0.00 0.00 0.00 92 1016.7
20260505032103 10 35 0.0 0.0 0.00 0.00 0.00 92 1016.7
20260505031601 10 45 0.0 0.0 0.00 0.00 0.00 92 1016.5
20260505031057 10 57 0.0 0.0 0.00 0.00 0.00 91 1016.5
20260505030554 10 60 0.0 0.0 0.00 0.00 0.00 91 1016.3
20260505030049 11 55 0.0 0.0 0.00 0.00 0.00 90 1016.4
20260505025546 11 36 0.0 0.0 0.00 0.00 0.00 90 1016.5
20260505025045 11 40 0.0 0.0 0.00 0.00 0.00 89 1016.0
20260505024542 11 35 0.0 0.0 0.00 0.00 0.00 90 1016.2
20260505024039 11 53 0.0 0.0 0.00 0.00 0.00 90 1016.2
20260505023536 11 37 0.0 0.0 0.00 0.00 0.00 91 1016.5
20260505023033 11 37 0.0 0.0 0.00 0.00 0.00 91 1016.3
20260505022531 10 37 0.0 0.0 0.00 0.00 0.00 92 1016.5
20260505022028 10 37 0.0 0.0 0.00 0.00 0.00 91 1016.5
20260505021524 10 37 0.0 0.0 0.00 0.00 0.00 91 1016.5
20260505021020 10 37 0.0 0.0 0.00 0.00 0.00 91 1016.4
20260505020514 10 37 0.0 0.0 0.00 0.00 0.00 91 1016.3
20260505020012 10 37 0.0 0.0 0.00 0.00 0.00 91 1016.3
20260505015509 10 37 0.0 0.0 0.00 0.00 0.00 91 1016.4
20260505015005 10 37 0.0 0.0 0.00 0.00 0.00 91 1016.4
20260505014502 10 34 0.0 0.0 0.00 0.00 0.00 91 1016.5
20260505014000 11 42 0.0 0.0 0.00 0.00 0.00 90 1016.4
20260505013457 11 42 0.0 0.0 0.00 0.00 0.00 90 1016.4
20260505012954 11 42 0.0 0.0 0.00 0.00 0.00 90 1016.4
20260505012452 11 42 0.0 0.0 0.00 0.00 0.00 89 1016.4
20260505011948 11 41 0.0 0.0 0.00 0.00 0.00 89 1016.5
20260505011444 11 38 0.0 0.0 0.00 0.00 0.00 89 1016.6
20260505010941 11 33 0.0 0.0 0.00 0.00 0.00 90 1016.7
20260505010437 11 37 0.0 0.0 0.00 0.00 0.00 90 1016.8
20260505005933 11 49 0.0 0.0 0.00 0.00 0.00 91 1016.7
20260505005430 11 39 0.0 0.0 0.00 0.00 0.00 90 1016.7
20260505004928 11 28 0.0 0.0 0.00 0.00 0.00 90 1016.8
20260505004424 11 48 0.0 0.0 0.00 0.00 0.00 90 1016.9
20260505003921 11 47 0.0 0.0 0.00 0.00 0.00 89 1017.1
20260505003419 11 50 0.0 0.0 0.00 0.00 0.00 89 1016.9
20260505002914 11 51 0.0 0.0 0.00 0.00 0.00 88 1016.9
20260505002411 11 51 0.0 0.0 0.00 0.00 0.00 88 1017.0
20260505001910 11 51 0.0 0.0 0.00 0.00 0.00 88 1017.0
20260505001407 11 45 0.0 0.0 0.00 0.00 0.00 87 1017.0
20260505000904 11 49 0.0 0.0 0.00 0.00 0.00 87 1016.9
20260505000401 11 223 0.0 0.0 0.00 0.00 0.00 86 1017.1
20260504235858 11 47 0.0 0.0 0.00 0.00 0.00 86 1016.9
20260504235355 11 81 0.0 0.0 0.00 0.00 0.00 86 1017.0
20260504234851 11 50 0.0 0.0 0.00 0.00 0.00 86 1017.1
20260504234349 11 35 0.0 0.0 0.00 0.00 0.00 87 1017.2
20260504233845 11 43 0.0 0.0 0.00 0.00 0.00 87 1016.9
20260504233341 11 77 0.0 3.2 0.00 0.00 0.00 88 1016.9
20260504232838 11 88 0.0 0.0 0.00 0.00 0.00 89 1016.9
20260504232335 11 51 0.0 0.0 0.00 0.00 0.00 91 1016.8
20260504231832 11 45 0.0 0.0 0.00 0.00 0.00 92 1016.8
20260504231328 11 29 0.0 0.0 0.00 0.00 0.00 92 1016.9
20260504230825 11 32 0.0 0.0 0.00 0.00 0.00 92 1016.8
20260504230323 11 41 0.0 0.0 0.00 0.00 0.00 92 1016.9
20260504225821 11 37 0.0 0.0 0.00 6.25 6.25 92 1016.9
20260504225317 11 20 0.0 0.0 0.00 6.25 6.25 92 1016.9
20260504224815 11 40 0.0 0.0 0.00 6.25 6.25 92 1016.9
20260504224311 11 40 0.0 0.0 0.00 6.25 6.25 92 1017.0
20260504223808 11 40 0.0 0.0 0.00 6.25 6.25 92 1017.0
20260504223303 11 40 0.0 0.0 0.00 6.25 6.25 91 1016.8
20260504222800 11 40 0.0 0.0 0.00 6.25 6.25 91 1016.9
20260504222257 11 40 0.0 0.0 0.00 6.25 6.25 90 1017.1
20260504221755 11 330 0.0 0.0 0.00 6.25 6.25 90 1017.2
20260504221252 11 43 0.0 0.0 0.00 6.25 6.25 90 1017.2
20260504220749 11 51 0.0 0.0 0.00 6.25 6.25 91 1017.1
20260504220246 11 35 0.0 0.0 0.00 6.25 6.25 91 1017.2
20260504215743 11 77 0.0 0.0 0.00 6.25 6.25 92 1017.4
20260504215240 11 38 0.0 0.0 0.00 6.25 6.25 92 1017.3
20260504214736 11 52 0.0 0.0 0.00 6.25 6.25 92 1017.3
20260504214233 11 43 1.6 1.6 0.00 6.25 6.25 92 1017.3
20260504213730 11 48 0.0 0.0 0.00 6.25 6.25 93 1017.3
20260504213226 11 48 0.0 0.0 0.00 6.25 6.25 93 1017.4
20260504212723 11 51 0.0 0.0 0.00 6.25 6.25 93 1017.3
20260504212219 11 8 0.0 0.0 0.00 6.25 6.25 93 1017.5
20260504211717 11 355 1.6 1.6 0.00 6.25 6.25 93 1017.4
20260504211212 11 26 0.0 0.0 0.00 6.25 6.25 93 1017.3
20260504210710 11 336 0.0 0.0 0.00 6.25 6.25 93 1017.4
20260504210207 11 42 0.0 0.0 0.00 6.25 6.25 94 1017.2
20260504205704 11 81 0.0 0.0 0.00 6.25 6.25 93 1017.4
20260504205201 11 38 0.0 0.0 0.00 6.25 6.25 94 1017.5
20260504204700 11 57 0.0 0.0 0.00 6.25 6.25 93 1017.4
20260504204158 11 53 0.0 0.0 0.00 6.25 6.25 93 1017.3
20260504203656 11 8 0.0 0.0 0.00 6.25 6.25 94 1017.3
20260504203154 11 41 0.0 0.0 0.00 6.25 6.25 94 1017.4
20260504202648 11 25 0.0 0.0 0.00 6.25 6.25 94 1017.1
20260504202146 11 39 0.0 0.0 0.00 6.25 6.25 95 1017.5
20260504201642 11 39 0.0 0.0 0.00 6.25 6.25 95 1017.3
20260504201140 11 28 0.0 0.0 0.00 6.25 6.25 94 1017.3
20260504200637 11 13 0.0 0.0 0.00 6.25 6.25 94 1017.1
20260504200133 11 0 0.0 0.0 0.00 6.25 6.25 94 1017.2
20260504195630 11 62 0.0 0.0 0.00 6.25 6.25 94 1017.2
20260504195126 11 6 0.0 0.0 0.00 6.25 6.25 94 1017.2
20260504194623 11 25 0.0 0.0 0.18 6.25 6.25 94 1017.2
20260504194119 11 44 0.0 0.0 0.18 6.25 6.25 94 1017.4
20260504193615 11 44 0.0 0.0 0.00 6.22 6.22 93 1017.3
20260504193114 11 53 0.0 0.0 0.00 6.22 6.22 93 1017.3
20260504192611 11 51 0.0 0.0 0.00 6.22 6.22 92 1017.3
20260504192109 11 260 1.6 3.2 0.00 6.22 6.22 91 1017.4
20260504191608 11 36 0.0 0.0 0.00 6.22 6.22 90 1017.2
20260504191103 11 38 0.0 0.0 0.00 6.22 6.22 91 1017.4
20260504190559 11 62 0.0 0.0 0.00 6.22 6.22 90 1017.3
20260504190055 12 25 0.0 0.0 0.00 6.22 6.22 92 1017.4
20260504185553 12 47 0.0 0.0 0.13 6.22 6.22 91 1017.5
20260504185044 12 39 0.0 0.0 0.61 6.22 6.22 89 1017.4
20260504184539 12 322 1.6 1.6 0.61 6.22 6.22 86 1017.5
20260504184035 12 259 4.8 6.4 0.00 6.12 6.12 83 1017.5
20260504183532 12 255 0.0 1.6 0.00 6.12 6.12 85 1017.5
20260504183031 12 221 0.0 3.2 0.00 6.12 6.12 88 1017.5
20260504182527 12 51 0.0 0.0 0.00 6.12 6.12 89 1017.3
20260504182025 11 61 0.0 0.0 0.00 6.12 6.12 90 1017.4
20260504181521 11 42 0.0 0.0 0.00 6.12 6.12 89 1017.2
20260504181020 11 36 0.0 0.0 0.00 6.12 6.12 89 1017.1
20260504180518 12 301 0.0 0.0 0.00 6.12 6.12 88 1017.0
20260504180017 12 55 0.0 0.0 0.00 6.12 6.12 88 1017.0
20260504175514 11 72 0.0 0.0 0.00 6.12 6.12 90 1017.2
20260504175011 11 28 0.0 0.0 0.00 6.12 6.12 90 1017.1
20260504174509 12 44 0.0 0.0 0.00 6.12 6.12 90 1017.2
20260504174005 11 40 0.0 0.0 0.00 6.12 6.12 92 1016.9
20260504173502 11 46 0.0 0.0 0.00 6.12 6.12 92 1017.0
20260504173000 11 60 0.0 0.0 0.00 6.12 6.12 92 1016.9
20260504172455 11 22 0.0 0.0 0.00 6.12 6.12 92 1016.8
20260504171952 11 47 0.0 0.0 0.00 6.12 6.12 92 1017.0
20260504171449 11 59 0.0 0.0 0.00 6.12 6.12 92 1016.9
20260504170946 11 42 0.0 0.0 0.00 6.12 6.12 92 1016.9
20260504170442 11 31 0.0 0.0 0.00 6.12 6.12 92 1016.9
20260504160402 13 62 0.0 0.0 0.00 6.07 6.07 83 1016.7
20260504150826 14 76 1.6 3.2 0.00 6.07 6.07 80 1016.3
20260504150322 15 99 6.4 6.4 0.00 6.07 6.07 79 1016.4
20260504141252 15 281 0.0 1.6 0.00 6.07 6.07 75 1016.0
20260504140749 15 117 1.6 3.2 0.00 6.07 6.07 75 1015.9
20260504140245 15 306 0.0 1.6 0.00 6.07 6.07 76 1015.9
20260504042204 13 270 14.5 16.1 0.13 5.51 5.51 90 1014.6
20260504041700 13 270 14.5 16.1 0.13 5.51 5.51 90 1014.6
20260504041156 13 259 14.5 24.1 0.30 5.51 5.51 92 1014.0
20260504040653 13 220 6.4 6.4 0.36 5.49 5.49 93 1014.2
20260504040150 13 249 11.3 16.1 0.48 5.46 5.46 93 1014.4